This is the latest recevied weather packets stored in our database for station/object S59MA-6. If no packets are shown the sender has not sent any weather packets the latest 10 day(s).
| Time | Temp. | Humidity | Pressure | Rain* | Wind** | Luminosity | Snow |
|---|---|---|---|---|---|---|---|
| 1778391917 | 18.33° C | 71% | 1004.8 hPa | 0 mm | - | - | - |
| 1778391620 | 18.33° C | 72% | 1004.7 hPa | 0 mm | - | - | - |
| 1778391017 | 18.33° C | 76% | 1004.9 hPa | 0 mm | - | - | - |
| 1778390718 | 18.33° C | 77% | 1004.9 hPa | 0 mm | - | - | - |
| 1778390117 | 17.22° C | 80% | 1004.9 hPa | 0 mm | - | - | - |
| 1778389817 | 16.67° C | 81% | 1005 hPa | 0 mm | - | - | - |
| 1778389518 | 16.11° C | 82% | 1005.1 hPa | 0 mm | - | - | - |
| 1778389218 | 15.56° C | 83% | 1005.1 hPa | 0 mm | - | - | - |
| 1778388617 | 13.89° C | 84% | 1005.1 hPa | 0 mm | - | - | - |
| 1778388317 | 12.78° C | 85% | 1005.1 hPa | 0 mm | - | - | - |
| 1778388018 | 11.67° C | 85% | 1005.1 hPa | 0 mm | - | - | - |
| 1778387418 | 10° C | 84% | 1005.1 hPa | 0 mm | - | - | - |
| 1778386517 | 8.89° C | 84% | 1005.4 hPa | 0 mm | - | - | - |
| 1778386220 | 8.89° C | 83% | 1005.2 hPa | 0 mm | - | - | - |
| 1778385917 | 8.33° C | 83% | 1005.4 hPa | 0 mm | - | - | - |
| 1778385618 | 8.33° C | 83% | 1005.2 hPa | 0 mm | - | - | - |
| 1778385318 | 8.33° C | 83% | 1005.1 hPa | 0 mm | - | - | - |
| 1778385018 | 8.33° C | 82% | 1005.3 hPa | 0 mm | - | - | - |
| 1778384717 | 8.89° C | 82% | 1005.3 hPa | 0 mm | - | - | - |
| 1778384417 | 8.89° C | 82% | 1005.3 hPa | 0 mm | - | - | - |
| 1778384117 | 8.89° C | 82% | 1005.4 hPa | 0 mm | - | - | - |
| 1778383817 | 8.89° C | 82% | 1005.5 hPa | 0 mm | - | - | - |
| 1778383517 | 8.89° C | 82% | 1005.6 hPa | 0 mm | - | - | - |
| 1778383217 | 8.89° C | 82% | 1005.4 hPa | 0 mm | - | - | - |
| 1778382618 | 8.89° C | 82% | 1005.5 hPa | 0 mm | - | - | - |
* Rain latest hour (hover to see other rain measurements)
** Current wind speed in m/s (hover to see current wind gust speed)